Terminal Aerodrome Forecast
Issued by NWS Goodland, KS

Home | Current Version | Previous Version | Text Only | Print | Product List | Glossary On
Versions: 1 2 3 4 5 6 7 8 9 10 11 12 13 14 15 16 17
000
FTUS43 KGLD 210500
TAFGLD
TAF
KGLD 210533Z 2106/2206 22012KT P6SM BKN150
     FM212200 24010KT P6SM VCTS SCT050CB BKN100
     FM220200 20010KT P6SM SCT100=

USA.gov is the U.S. government's official web portal to all federal, state and local government web resources and services.